Regional Weather Roundup
Issued by NWS Cleveland, OH

Home | Current Version | Previous Version | Graphics & Text | Print | Product List | Glossary On
Versions: 1 2 3 4 5 6 7 8 9 10 11 12 13 14 15 16 17 18 19 20 21 22 23 24 25 26 27 28 29 30 31 32 33 34 35 36 37 38 39 40 41 42 43 44 45 46 47 48 49 50
000
ASUS41 KCLE 250710
RWRCLE
OHIO REGIONAL WEATHER ROUNDUP
NATIONAL WEATHER SERVICE WILMINGTON, OH
300 AM EDT TUE APR 25 2017

NOTE: "FAIR" INDICATES FEW OR NO CLOUDS BELOW 12,000 FEET WITH NO
SIGNIFICANT WEATHER AND/OR OBSTRUCTIONS TO VISIBILITY.

OHZ001>008-015>018-024>027-034-035-043-044-250800-
   NORTHWEST OHIO

CITY           SKY/WX    TMP DP  RH WIND       PRES   REMARKS
DEFIANCE       FAIR      52  45  77 E3        29.84S
FINDLAY        CLOUDY    56  45  66 SE12      29.82F
TOLEDO EXPRESS FAIR      52  47  83 E7        29.84F
TOLEDO EXEC    CLOUDY    55  48  77 E6        29.85F
LIMA           FAIR      52  47  83 SE7       29.83S
$$

OHZ009>014-019>023-028>033-038-089-250800-
   NORTHEAST OHIO

CITY           SKY/WX    TMP DP  RH WIND       PRES   REMARKS
CLE-HOPKINS    CLOUDY    59  42  53 SE14      29.90F
CLE-LAKEFRONT  CLOUDY    59  44  57 SE14G23   29.87F
CUY CO. ARPT   NOT AVBL
LORAIN-ELYRIA  CLOUDY    56  43  61 SE14      29.87F
ASHTABULA      MOCLDY    56  43  61 SE8       29.92F
AKRON-CANTON   MOCLDY    54  42  64 SE9       29.88F
WOOSTER        MOCLDY    53  44  71 SE8       29.88F
MANSFIELD      FAIR      53  45  74 SE14      29.86F
YOUNGSTOWN     CLOUDY    54  42  64 SE12      29.91F
$$

OHZ042-051>053-060>062-070>072-077>081-250800-
  SOUTHWEST OHIO

CITY           SKY/WX    TMP DP  RH WIND       PRES   REMARKS
CINC-COVINGTON MOCLDY    57  52  83 E8        29.79F
CINC-LUNKEN    FAIR      52  52 100 N3        29.81F
HAMILTON       FAIR      52  50  93 CALM      29.82F
DAYTON         FAIR      53  47  79 E10       29.82F
WRIGHT-PAT AFB FAIR      53  49  84 E7        29.81F
DAYTON GENERAL FAIR      53  48  83 E6        29.80F
WILMINGTON     MOCLDY    52  49  89 NE5       29.81F
$$

OHZ036-037-039>041-045>050-054>059-063>069-073>076-082>088-250800-
  CENTRAL AND SOUTHEAST OHIO

CITY           SKY/WX    TMP DP  RH WIND       PRES   REMARKS
COLUMBUS       CLOUDY    55  48  77 E9        29.83F
OSU AIRPORT    FAIR      52  47  83 E6        29.83F
BOLTON FIELD   MOCLDY    53  47  79 E7        29.84S
RICKENBACK AFB MOCLDY    52  47  84 E7        29.82F
NEWARK         CLOUDY    54  46  74 E6        29.84F
MARION         CLOUDY    54  46  74 SE12      29.84F
LANCASTER      CLOUDY    55  47  74 E7        29.84S
ZANESVILLE     FAIR      54  46  74 E7        29.84F
NEW PHILLY     MOCLDY    55  45  68 E8        29.87F
$$




USA.gov is the U.S. government's official web portal to all federal, state and local government web resources and services.